Regional Weather Roundup
Issued by NWS Raleigh/Durham, NC

Home | Current Version | Previous Version | Text Only | Print | Product List | Glossary On
Versions: 1 2 3 4 5 6 7 8 9 10 11 12 13 14 15 16 17 18 19 20 21 22 23 24 25 26 27 28 29 30 31 32 33 34 35 36 37 38 39 40 41 42 43 44 45 46 47 48 49 50
000
ASUS42 KRAH 292310
RWRRAH
NORTH CAROLINA WEATHER ROUNDUP
NATIONAL WEATHER SERVICE RALEIGH NC
700 PM EDT FRI MAY 29 2015

NOTE: "FAIR" INDICATES FEW OR NO CLOUDS BELOW 12,000 FEET WITH NO
SIGNIFICANT WEATHER AND/OR OBSTRUCTIONS TO VISIBILITY.

NCZ001-053-055-056-065-067-300000-
WESTERN NORTH CAROLINA

CITY           SKY/WX    TMP DP  RH WIND       PRES   REMARKS
ASHEVILLE      MOSUNNY   74  61  63 SW7       30.22S
JEFFERSON      PTSUNNY   70  58  66 S5        30.27S
MORGANTON      MOSUNNY   76  65  68 W5        30.22F
HICKORY        MOSUNNY   82  63  52 VRB3      30.17F
RUTHERFORDTON  PTSUNNY   81  69  67 CALM      30.17S
MOUNT AIRY       N/A     70  68  92 NE3       30.21F
BOONE          MOSUNNY   67  60  78 SE5       30.28S
$$

NCZ021-022-025-041-071-084-088-300000-
CENTRAL NORTH CAROLINA

CITY           SKY/WX    TMP DP  RH WIND       PRES   REMARKS
CHARLOTTE      MOSUNNY   85  55  35 SE9       30.15F
GREENSBORO     PTSUNNY   83  61  47 S8        30.16F
WINSTON-SALEM  PTSUNNY   72  68  87 CALM      30.18F
RALEIGH-DURHAM MOSUNNY   83  53  35 SE7       30.17S
FORT BRAGG     SUNNY     85  56  37 S2        30.15S
FAYETTEVILLE   PTSUNNY   87  58  37 SE5       30.15S
BURLINGTON     SUNNY     84  64  50 VRB7      30.16F
LAURINBURG     SUNNY     86  54  33 S6        30.16S
$$

NCZ011-015-027-028-043-044-047-080-103-300000-
NORTHEASTERN NORTH CAROLINA

CITY           SKY/WX    TMP DP  RH WIND       PRES   REMARKS
ROCKY MT-WILSO MOSUNNY   85  60  42 VRB5      30.17S
GREENVILLE     SUNNY     82  66  57 SE7       30.19S
WASHINGTON     SUNNY     80  67  64 SE10      30.19S
ELIZABETH CITY SUNNY     77  67  71 E13       30.21S
MANTEO         SUNNY     76  69  79 SE9       30.22S
CAPE HATTERAS  SUNNY     78  66  66 SE7       30.22S
$$

NCZ078-087-090-091-093-098-101-300000-
SOUTHEASTERN NORTH CAROLINA

CITY           SKY/WX    TMP DP  RH WIND       PRES   REMARKS
LUMBERTON      MOSUNNY   86  64  47 SE9       30.15R
GOLDSBORO      SUNNY     83  65  52 SE9       30.14S
KINSTON        MOSUNNY   81  64  57 SE6       30.18S
KENANSVILLE    MOSUNNY   82  63  52 SE6       30.18R
NEW BERN       SUNNY     80  66  62 VRB5      30.20S
CHERRY POINT   MOSUNNY   79  66  64 S9        30.20S
BEAUFORT       SUNNY     77  69  76 SE8       30.20S
JACKSONVILLE   SUNNY     79  66  64 SE10      30.19S
WILMINGTON     PTSUNNY   79  65  62 SE10      30.18F
$$



USA.gov is the U.S. government's official web portal to all federal, state and local government web resources and services.